Regional Weather Roundup
Issued by NWS Midland/Odessa, TX

Skip options and go directly to product.
Home | Oldest Version | Previous Version | Current Version | All | Text Only | Save Text | Print | Product List | Glossary Off

Skip product version selection by date and time.   

278
ASUS44 KMAF 211410
RWRMAF
MIDLAND AREA WEATHER ROUNDUP
NATIONAL WEATHER SERVICE MIDLAND TX
900 AM CDT TUE APR 21 2015

...IN SOUTHWEST TEXAS AND SOUTHEAST NEW MEXICO...

CITY           SKY/WX    TMP DP  RH WIND       PRES   REMARKS
ALPINE         SUNNY     62  47  57 W9        30.06R
ANDREWS        FAIR      54  41  62 S9        29.97R
ARTESIA        SUNNY     54  46  76 NE6       29.98R
BIG SPRING     SUNNY     59  41  52 S14G20    29.98R
CARLSBAD       MOSUNNY   54  44  69 S5        29.94R
DRYDEN           N/A     57  48  72 E5        29.95R
FORT STOCKTON  MOSUNNY   56  45  66 W6        29.96R
GUAD PASS      SUNNY     55  36  48 SW13      30.04R
HOBBS          SUNNY     50  41  71 CALM      29.97R
MARFA          NOT AVBL
MIDLAND AIRPK  SUNNY     57  42  57 S8        29.96R
MIDLAND INTL   SUNNY     56  42  59 SE12      29.95R
ODESSA         SUNNY     56  42  59 S13       29.96R
PECOS          SUNNY     52  41  66 CALM      29.95R
PRESIDIO       FAIR      62  45  53 MISG      29.97R
SEMINOLE       SUNNY     53  42  66 S10       29.95S
SNYDER         SUNNY    N/A N/A N/A S10       29.96R
WINK           SUNNY     55  41  59 SE10      29.93S
$$
...OTHER STATIONS IN TEXAS...

CITY           SKY/WX    TMP DP  RH WIND       PRES   REMARKS
ABILENE        MOSUNNY   59  46  62 S15       29.97S
AMARILLO       SUNNY     51  39  63 W3        29.98R
AUSTIN         MOSUNNY   59  52  77 E3        30.02R
BROWNSVILLE    CLOUDY    73  67  81 NE9       29.94R
CORPUS CHRISTI PTSUNNY   69  62  78 NE7       29.96S
DALLAS FTW     PTSUNNY   56  49  77 SE6       29.99S
DEL RIO        SUNNY     62  49  62 SE10      29.96R
EL PASO        MOSUNNY   61  26  26 S3        29.96R
HOUSTON INT    MOSUNNY   66  50  56 NE9       30.02R
LUBBOCK        MOSUNNY   52  40  63 NE5       29.98R
SAN ANGELO     MOSUNNY   57  47  69 E6        29.98R
SAN ANTONIO    PTSUNNY   62  52  69 NE6       29.99F
WACO           SUNNY     60  48  64 SE8       30.01F
WICHITA FALLS  NOT AVBL
$$
...OTHER LOCATIONS IN NEW MEXICO...

CITY           SKY/WX    TMP DP  RH WIND       PRES   REMARKS
ALAMAGORDO     MOSUNNY   57  28  33 CALM      29.97R
ALBUQUERQUE    MOSUNNY   49  25  39 NW7       30.03R
CANNON AFB     SUNNY     47  37  69 NE6       29.99R
CLOVIS         SUNNY     45  34  65 N7        29.99S
HOLLOMAN AFB   MOSUNNY   55  29  36 CALM      29.96R
ROSWELL        MOSUNNY   52  42  69 N8        29.98R
RUIDOSO        SUNNY     52  25  35 SW6       30.10R
SANTA FE       SUNNY     44  24  45 N13       30.04R WCI  38
TRUTH OR CONSE SUNNY     56  24  29 NW8       29.98R
TUCUMCARI      SUNNY     48  41  76 NW8       29.98R
$$

USA.gov is the U.S. government's official web portal to all federal, state and local government web resources and services.